Location: Asheville, NC
(35.6000°N, 82.5500°W)
Time: 00:31:07
(UTC-04:00)

YUBILEINY - Pass Details

Date: 10 March 2018
Orbit: 1479 x 1508 km, 82.5° (Epoch: 18 June)

Event Time Altitude Azimuth Distance (km) Brightness Sun altitude
Rises 06:17:15 0° 347° (NNW) 4,612 ? -7.1°
Reaches altitude 10° 06:20:11 10° 344° (NNW) 3,632 ? -6.5°
Maximum altitude 06:28:35 55° 270° (W) 1,747 ? -4.8°
Drops below altitude 10° 06:37:01 10° 195° (SSW) 3,636 ? -3.0°
Sets 06:39:59 0° 191° (S) 4,617 ? -2.4°
